HL7101 BIAR-EKVG

Flight info

Callsign HL7101
Flight time 1h 36m
Altitude 27000
Route BIAR AKI1F AKI DCT BRUSI DCT 63N10 DCT MAGNI DCT EKVG
Aircraft SF50/L-SDFGRWY/L

Departure

Time 2026-05-03 21:48
Airport Akureyri International Airport (BIAR)

Arrival

Time 2026-05-03 23:24
Airport Vágar Airport (EKVG)
Time Latitude Longitude Altitude Speed Heading
2026-05-03 21:35 65.65385 -18.07741 11 ft 0 kts 172°
2026-05-03 21:43 65.65375 -18.07730 11 ft 2 kts 99°
2026-05-03 21:43 65.65378 -18.07628 11 ft 11 kts 85°
2026-05-03 21:43 65.65384 -18.07453 11 ft 9 kts 74°
2026-05-03 21:44 65.65432 -18.07417 11 ft 9 kts 356°
2026-05-03 21:44 65.65473 -18.07418 11 ft 5 kts 25°
2026-05-03 21:44 65.65479 -18.07397 11 ft 0 kts 95°
2026-05-03 21:45 65.65479 -18.07311 11 ft 12 kts 85°
2026-05-03 21:45 65.65444 -18.07167 8 ft 14 kts 180°
2026-05-03 21:45 65.65320 -18.07145 9 ft 21 kts 175°
2026-05-03 21:46 65.65143 -18.07111 12 ft 28 kts 175°
2026-05-03 21:46 65.64938 -18.07074 14 ft 28 kts 175°
2026-05-03 21:46 65.64743 -18.07063 10 ft 24 kts 182°
2026-05-03 21:46 65.64624 -18.07035 8 ft 8 kts 127°
2026-05-03 21:47 65.64641 -18.07011 8 ft 0 kts 355°
2026-05-03 21:47 65.64831 -18.07048 11 ft 60 kts 355°
2026-05-03 21:47 65.65426 -18.07152 113 ft 103 kts 357°
2026-05-03 21:48 65.66219 -18.07299 429 ft 131 kts 356°
2026-05-03 21:48 65.67193 -18.07508 960 ft 149 kts 355°
2026-05-03 21:48 65.68276 -18.07788 1554 ft 159 kts 355°
2026-05-03 21:48 65.69352 -18.08224 2506 ft 159 kts 347°
2026-05-03 21:49 65.70406 -18.08983 3262 ft 159 kts 345°
2026-05-03 21:49 65.71474 -18.09699 4032 ft 154 kts 348°
2026-05-03 21:49 65.72533 -18.10426 4691 ft 161 kts 343°
2026-05-03 21:49 65.73586 -18.11320 5409 ft 161 kts 342°
2026-05-03 21:50 65.74686 -18.11973 6073 ft 165 kts 347°
2026-05-03 21:50 65.75818 -18.12663 6714 ft 167 kts 340°
2026-05-03 21:50 65.76931 -18.13487 7358 ft 170 kts 341°
2026-05-03 21:50 65.78076 -18.14258 8017 ft 171 kts 341°
2026-05-03 21:51 65.79224 -18.15048 8676 ft 172 kts 340°
2026-05-03 21:51 65.80377 -18.15842 9339 ft 173 kts 339°
2026-05-03 21:51 65.81538 -18.16649 9990 ft 174 kts 339°
2026-05-03 21:51 65.82700 -18.17449 10622 ft 173 kts 340°
2026-05-03 21:52 65.83863 -18.18258 11199 ft 174 kts 340°
2026-05-03 21:52 65.85034 -18.19065 11774 ft 175 kts 340°
2026-05-03 21:52 65.86247 -18.19416 12299 ft 186 kts
2026-05-03 21:52 65.87329 -18.17567 12873 ft 200 kts 46°
2026-05-03 21:53 65.87718 -18.14257 13417 ft 213 kts 91°
2026-05-03 21:53 65.87077 -18.11026 13931 ft 217 kts 141°
2026-05-03 21:53 65.85755 -18.09367 14367 ft 215 kts 165°
2026-05-03 21:53 65.84336 -18.08151 14810 ft 218 kts 165°
2026-05-03 21:54 65.82907 -18.06846 15234 ft 221 kts 166°
2026-05-03 21:54 65.81446 -18.05478 15601 ft 228 kts 166°
2026-05-03 21:54 65.79956 -18.04098 16096 ft 230 kts 167°
2026-05-03 21:54 65.78442 -18.02695 16529 ft 235 kts 167°
2026-05-03 21:55 65.76917 -18.01192 16939 ft 242 kts 160°
2026-05-03 21:55 65.75551 -17.98633 17314 ft 254 kts 138°
2026-05-03 21:55 65.74484 -17.95166 17689 ft 259 kts 125°
2026-05-03 21:55 65.73460 -17.91524 18035 ft 262 kts 127°
2026-05-03 21:56 65.72404 -17.87883 18415 ft 266 kts 127°
2026-05-03 21:56 65.71341 -17.84176 18769 ft 269 kts 126°
2026-05-03 21:56 65.70264 -17.80409 19066 ft 273 kts 127°
2026-05-03 21:56 65.69542 -17.77895 19253 ft 275 kts 127°
2026-05-03 21:57 65.68446 -17.74059 19580 ft 278 kts 127°
2026-05-03 21:57 65.66947 -17.68863 19956 ft 283 kts 128°
2026-05-03 21:57 65.66192 -17.66272 20149 ft 285 kts 128°
2026-05-03 21:57 65.65045 -17.62320 20439 ft 288 kts 127°
2026-05-03 21:58 65.63886 -17.58312 20714 ft 292 kts 128°
2026-05-03 21:58 65.62712 -17.54269 20984 ft 296 kts 128°
2026-05-03 21:58 65.61529 -17.50195 21339 ft 296 kts 128°
2026-05-03 21:58 65.60342 -17.46114 21654 ft 298 kts 128°
2026-05-03 21:59 65.59141 -17.42001 21974 ft 300 kts 128°
2026-05-03 21:59 65.57935 -17.37876 22313 ft 301 kts 128°
2026-05-03 21:59 65.56699 -17.33662 22375 ft 313 kts 129°
2026-05-03 21:59 65.55440 -17.29359 22692 ft 315 kts 129°
2026-05-03 22:00 65.54170 -17.25040 23017 ft 317 kts 129°
2026-05-03 22:00 65.52888 -17.20696 23354 ft 319 kts 129°
2026-05-03 22:00 65.51598 -17.16325 23659 ft 321 kts 129°
2026-05-03 22:00 65.50301 -17.11941 23958 ft 321 kts 129°
2026-05-03 22:01 65.49006 -17.07568 24249 ft 321 kts 129°
2026-05-03 22:01 65.47704 -17.03191 24558 ft 321 kts 129°
2026-05-03 22:01 65.46410 -16.98841 24992 ft 316 kts 128°
2026-05-03 22:01 65.45149 -16.94602 25442 ft 309 kts 128°
2026-05-03 22:02 65.43895 -16.90407 25753 ft 310 kts 128°
2026-05-03 22:02 65.42634 -16.86195 26085 ft 310 kts 128°
2026-05-03 22:02 65.41374 -16.81987 26378 ft 311 kts 128°
2026-05-03 22:02 65.40108 -16.77788 26667 ft 310 kts 128°
2026-05-03 22:03 65.38846 -16.73574 26964 ft 311 kts 128°
2026-05-03 22:03 65.37559 -16.69304 27037 ft 322 kts 128°
2026-05-03 22:03 65.36213 -16.64884 27033 ft 334 kts 128°
2026-05-03 22:03 65.34832 -16.60309 27042 ft 342 kts 128°
2026-05-03 22:04 65.33421 -16.55646 27008 ft 348 kts 128°
2026-05-03 22:04 65.31983 -16.50916 27033 ft 355 kts 128°
2026-05-03 22:04 65.30511 -16.46083 27030 ft 363 kts 128°
2026-05-03 22:04 65.29019 -16.41158 27028 ft 369 kts 129°
2026-05-03 22:05 65.27485 -16.36195 27037 ft 375 kts 129°
2026-05-03 22:05 65.25926 -16.31135 27026 ft 382 kts 128°
2026-05-03 22:05 65.24346 -16.25970 27023 ft 388 kts 128°
2026-05-03 22:05 65.22742 -16.20751 27032 ft 392 kts 129°
2026-05-03 22:06 65.21114 -16.15487 27021 ft 397 kts 129°
2026-05-03 22:06 65.19466 -16.10165 27035 ft 401 kts 129°
2026-05-03 22:06 65.17806 -16.04801 27018 ft 403 kts 128°
2026-05-03 22:06 65.16131 -15.99419 27018 ft 406 kts 129°
2026-05-03 22:07 65.14447 -15.94016 27021 ft 408 kts 129°
2026-05-03 22:07 65.12748 -15.88583 27020 ft 410 kts 129°
2026-05-03 22:07 65.11039 -15.83148 27071 ft 411 kts 129°
2026-05-03 22:07 65.09346 -15.77759 26990 ft 401 kts 128°
2026-05-03 22:08 65.07685 -15.72459 27016 ft 402 kts 129°
2026-05-03 22:08 65.05996 -15.67142 27017 ft 405 kts 129°
2026-05-03 22:08 65.04283 -15.61823 27023 ft 407 kts 129°
2026-05-03 22:08 65.02566 -15.56469 27016 ft 409 kts 129°
2026-05-03 22:09 65.00852 -15.51101 27013 ft 409 kts 129°
2026-05-03 22:09 64.99139 -15.45754 27016 ft 408 kts 129°
2026-05-03 22:09 64.97420 -15.40437 27008 ft 407 kts 129°
2026-05-03 22:10 64.93995 -15.29837 27002 ft 406 kts 129°
2026-05-03 22:10 64.92276 -15.24545 27005 ft 407 kts 130°
2026-05-03 22:10 64.90550 -15.19249 27007 ft 409 kts 129°
2026-05-03 22:10 64.88818 -15.13936 27019 ft 409 kts 129°
2026-05-03 22:11 64.87088 -15.08632 27009 ft 409 kts 130°
2026-05-03 22:11 64.85348 -15.03350 26915 ft 409 kts 130°
2026-05-03 22:11 64.83609 -14.98066 27007 ft 409 kts 130°
2026-05-03 22:11 64.81867 -14.92756 27007 ft 412 kts 130°
2026-05-03 22:12 64.80110 -14.87431 27017 ft 413 kts 130°
2026-05-03 22:12 64.78340 -14.82092 27018 ft 415 kts 130°
2026-05-03 22:12 64.76567 -14.76749 27023 ft 416 kts 130°
2026-05-03 22:12 64.74792 -14.71400 27045 ft 413 kts 130°
2026-05-03 22:13 64.73063 -14.66201 27016 ft 397 kts 130°
2026-05-03 22:13 64.71369 -14.61118 27003 ft 398 kts 130°
2026-05-03 22:13 64.69652 -14.56017 27022 ft 400 kts 130°
2026-05-03 22:13 64.67931 -14.50885 27019 ft 403 kts 130°
2026-05-03 22:14 64.66195 -14.45730 27018 ft 404 kts 130°
2026-05-03 22:14 64.64461 -14.40584 27026 ft 404 kts 130°
2026-05-03 22:14 64.62718 -14.35427 27027 ft 404 kts 130°
2026-05-03 22:14 64.60974 -14.30279 27028 ft 405 kts 130°
2026-05-03 22:15 64.59228 -14.25137 27005 ft 405 kts 131°
2026-05-03 22:15 64.57476 -14.19988 27014 ft 407 kts 131°
2026-05-03 22:15 64.55712 -14.14814 27014 ft 409 kts 131°
2026-05-03 22:15 64.53941 -14.09625 27005 ft 411 kts 131°
2026-05-03 22:16 64.52159 -14.04427 27015 ft 412 kts 131°
2026-05-03 22:16 64.50376 -13.99235 27017 ft 411 kts 131°
2026-05-03 22:16 64.48591 -13.94048 27014 ft 411 kts 131°
2026-05-03 22:16 64.46810 -13.88889 27017 ft 410 kts 131°
2026-05-03 22:17 64.45031 -13.83738 27005 ft 409 kts 131°
2026-05-03 22:17 64.43248 -13.78602 27004 ft 409 kts 131°
2026-05-03 22:17 64.41467 -13.73482 27009 ft 408 kts 131°
2026-05-03 22:17 64.39689 -13.68372 27009 ft 408 kts 131°
2026-05-03 22:18 64.37910 -13.63272 27019 ft 405 kts 131°
2026-05-03 22:18 64.36161 -13.58266 26999 ft 397 kts 131°
2026-05-03 22:18 64.34416 -13.53299 26972 ft 399 kts 132°
2026-05-03 22:18 64.32665 -13.48326 27013 ft 401 kts 132°
2026-05-03 22:19 64.30903 -13.43310 27001 ft 404 kts 131°
2026-05-03 22:19 64.29129 -13.38279 27004 ft 406 kts 132°
2026-05-03 22:19 64.27340 -13.33232 27000 ft 408 kts 132°
2026-05-03 22:19 64.25545 -13.28166 27006 ft 410 kts 132°
2026-05-03 22:20 64.23740 -13.23079 27001 ft 411 kts 132°
2026-05-03 22:20 64.21929 -13.17999 27018 ft 410 kts 132°
2026-05-03 22:20 64.20121 -13.12935 27005 ft 409 kts 132°
2026-05-03 22:20 64.18318 -13.07898 27004 ft 408 kts 132°
2026-05-03 22:21 64.16513 -13.02870 27006 ft 408 kts 132°
2026-05-03 22:21 64.14714 -12.97862 27001 ft 407 kts 132°
2026-05-03 22:21 64.12912 -12.92861 27002 ft 407 kts 132°
2026-05-03 22:21 64.11106 -12.87865 27000 ft 408 kts 133°
2026-05-03 22:22 64.09297 -12.82867 27001 ft 409 kts 133°
2026-05-03 22:22 64.07484 -12.77862 27006 ft 409 kts 133°
2026-05-03 22:22 64.05667 -12.72857 27008 ft 409 kts 133°
2026-05-03 22:22 64.03846 -12.67864 27009 ft 410 kts 133°
2026-05-03 22:23 64.02019 -12.62862 27037 ft 410 kts 133°
2026-05-03 22:23 64.00217 -12.57927 27003 ft 399 kts 133°
2026-05-03 22:23 63.98446 -12.53094 26987 ft 398 kts 133°
2026-05-03 22:23 63.96659 -12.48249 27002 ft 400 kts 133°
2026-05-03 22:24 63.94867 -12.43384 27000 ft 402 kts 133°
2026-05-03 22:24 63.93091 -12.38567 26996 ft 403 kts 133°
2026-05-03 22:24 63.91259 -12.33619 27004 ft 404 kts 133°
2026-05-03 22:24 63.89450 -12.28749 27002 ft 403 kts 133°
2026-05-03 22:25 63.87643 -12.23879 27002 ft 402 kts 133°
2026-05-03 22:25 63.85840 -12.19038 27001 ft 401 kts 133°
2026-05-03 22:25 63.84038 -12.14217 26963 ft 400 kts 133°
2026-05-03 22:25 63.82237 -12.09398 26994 ft 402 kts 133°
2026-05-03 22:26 63.80421 -12.04553 26997 ft 404 kts 133°
2026-05-03 22:26 63.78598 -11.99701 27002 ft 406 kts 133°
2026-05-03 22:26 63.76764 -11.94827 26999 ft 407 kts 134°
2026-05-03 22:26 63.74925 -11.89948 27000 ft 409 kts 134°
2026-05-03 22:27 63.73079 -11.85071 26990 ft 408 kts 134°
2026-05-03 22:27 63.71238 -11.80213 26988 ft 407 kts 134°
2026-05-03 22:27 63.69401 -11.75377 26987 ft 405 kts 134°
2026-05-03 22:27 63.67563 -11.70554 26988 ft 404 kts 134°
2026-05-03 22:28 63.65733 -11.65757 26989 ft 404 kts 134°
2026-05-03 22:28 63.63900 -11.60961 26997 ft 401 kts 134°
2026-05-03 22:28 63.62098 -11.56255 26981 ft 394 kts 134°
2026-05-03 22:28 63.60299 -11.51576 26985 ft 397 kts 134°
2026-05-03 22:29 63.58490 -11.46880 26937 ft 398 kts 134°
2026-05-03 22:29 63.56683 -11.42181 26983 ft 399 kts 134°
2026-05-03 22:29 63.54861 -11.37467 26994 ft 401 kts 134°
2026-05-03 22:29 63.53027 -11.32733 26990 ft 403 kts 134°
2026-05-03 22:30 63.51187 -11.27986 26994 ft 404 kts 134°
2026-05-03 22:30 63.49336 -11.23227 26996 ft 406 kts 134°
2026-05-03 22:30 63.47479 -11.18462 26985 ft 406 kts 134°
2026-05-03 22:30 63.45625 -11.13716 26983 ft 405 kts 134°
2026-05-03 22:31 63.43770 -11.08982 26987 ft 404 kts 134°
2026-05-03 22:31 63.41922 -11.04269 26979 ft 403 kts 135°
2026-05-03 22:31 63.40099 -10.99630 26984 ft 402 kts 135°
2026-05-03 22:31 63.38252 -10.94946 26973 ft 402 kts 135°
2026-05-03 22:32 63.36404 -10.90263 26975 ft 402 kts 135°
2026-05-03 22:32 63.34528 -10.85523 26978 ft 403 kts 135°
2026-05-03 22:32 63.32698 -10.80903 26905 ft 403 kts 135°
2026-05-03 22:32 63.30846 -10.76232 26964 ft 404 kts 135°
2026-05-03 22:33 63.28979 -10.71549 26978 ft 405 kts 135°
2026-05-03 22:33 63.27108 -10.66859 27015 ft 407 kts 135°
2026-05-03 22:33 63.25237 -10.62172 26972 ft 402 kts 135°
2026-05-03 22:33 63.23389 -10.57556 26969 ft 399 kts 135°
2026-05-03 22:34 63.21537 -10.52948 26969 ft 402 kts 135°
2026-05-03 22:34 63.19671 -10.48321 26970 ft 403 kts 135°
2026-05-03 22:34 63.17802 -10.43679 26973 ft 404 kts 135°
2026-05-03 22:34 63.15927 -10.39033 26976 ft 404 kts 135°
2026-05-03 22:35 63.14052 -10.34408 26972 ft 403 kts 135°
2026-05-03 22:35 63.12183 -10.29801 26967 ft 402 kts 135°
2026-05-03 22:35 63.10317 -10.25207 26964 ft 401 kts 136°
2026-05-03 22:35 63.08455 -10.20641 26961 ft 400 kts 136°
2026-05-03 22:36 63.06593 -10.16076 26895 ft 400 kts 135°
2026-05-03 22:36 63.04731 -10.11521 26957 ft 400 kts 136°
2026-05-03 22:36 63.02858 -10.06958 26970 ft 402 kts 136°
2026-05-03 22:36 63.00981 -10.02383 26964 ft 404 kts 136°
2026-05-03 22:37 62.99134 -9.97720 26960 ft 405 kts 132°
2026-05-03 22:37 62.97343 -9.92922 26962 ft 407 kts 132°
2026-05-03 22:37 62.95536 -9.88121 26966 ft 407 kts 133°
2026-05-03 22:37 62.93728 -9.83348 26965 ft 406 kts 133°
2026-05-03 22:38 62.91926 -9.78586 26971 ft 405 kts 132°
2026-05-03 22:38 62.90130 -9.73837 27007 ft 404 kts 133°
2026-05-03 22:38 62.88342 -9.69130 26960 ft 398 kts 133°
2026-05-03 22:38 62.86571 -9.64491 26951 ft 397 kts 133°
2026-05-03 22:39 62.84792 -9.59838 26957 ft 399 kts 133°
2026-05-03 22:39 62.83588 -9.56683 26962 ft 400 kts 133°
2026-05-03 22:39 62.81803 -9.52006 26963 ft 401 kts 133°
2026-05-03 22:39 62.80006 -9.47329 26922 ft 400 kts 133°
2026-05-03 22:40 62.78214 -9.42671 26951 ft 401 kts 133°
2026-05-03 22:40 62.76414 -9.37993 26955 ft 403 kts 133°
2026-05-03 22:40 62.74608 -9.33313 26957 ft 404 kts 133°
2026-05-03 22:40 62.72794 -9.28627 26959 ft 404 kts 133°
2026-05-03 22:41 62.70983 -9.23956 26956 ft 403 kts 133°
2026-05-03 22:41 62.69176 -9.19310 26950 ft 402 kts 133°
2026-05-03 22:41 62.67373 -9.14677 26950 ft 401 kts 133°
2026-05-03 22:41 62.65573 -9.10059 26950 ft 400 kts 133°
2026-05-03 22:42 62.63771 -9.05456 26950 ft 399 kts 134°
2026-05-03 22:42 62.61993 -9.00918 26951 ft 400 kts 134°
2026-05-03 22:42 62.60181 -8.96301 26953 ft 401 kts 134°
2026-05-03 22:42 62.58369 -8.91688 26956 ft 402 kts 134°
2026-05-03 22:43 62.56549 -8.87068 26953 ft 403 kts 134°
2026-05-03 22:43 62.54727 -8.82457 26873 ft 400 kts 134°
2026-05-03 22:43 62.52946 -8.77948 26934 ft 390 kts 134°
2026-05-03 22:43 62.51185 -8.73509 26939 ft 387 kts 134°
2026-05-03 22:44 62.49437 -8.69109 26943 ft 385 kts 134°
2026-05-03 22:44 62.47693 -8.64732 26943 ft 384 kts 134°
2026-05-03 22:44 62.45947 -8.60361 26844 ft 387 kts 134°
2026-05-03 22:44 62.44166 -8.55912 26393 ft 392 kts 134°
2026-05-03 22:45 62.42399 -8.51486 25880 ft 386 kts 135°
2026-05-03 22:45 62.40655 -8.47133 25377 ft 381 kts 135°
2026-05-03 22:45 62.38922 -8.42833 24877 ft 380 kts 136°
2026-05-03 22:45 62.37183 -8.38525 24383 ft 383 kts 136°
2026-05-03 22:46 62.35433 -8.34183 23876 ft 385 kts 136°
2026-05-03 22:46 62.33672 -8.29825 23329 ft 386 kts 136°
2026-05-03 22:46 62.31918 -8.25497 22798 ft 381 kts 136°
2026-05-03 22:46 62.30184 -8.21220 22295 ft 378 kts 136°
2026-05-03 22:47 62.28452 -8.16966 21710 ft 379 kts 136°
2026-05-03 22:47 62.26727 -8.12735 21279 ft 375 kts 136°
2026-05-03 22:47 62.25012 -8.08526 20794 ft 374 kts 136°
2026-05-03 22:47 62.23300 -8.04343 20299 ft 373 kts 136°
2026-05-03 22:48 62.21589 -8.00172 19809 ft 371 kts 136°
2026-05-03 22:48 62.19888 -7.96021 19316 ft 370 kts 136°
2026-05-03 22:48 62.18189 -7.91891 18830 ft 369 kts 136°
2026-05-03 22:48 62.16492 -7.87777 18340 ft 368 kts 136°
2026-05-03 22:49 62.14801 -7.83677 17811 ft 366 kts 136°
2026-05-03 22:49 62.13227 -7.79432 17309 ft 366 kts 126°
2026-05-03 22:49 62.12054 -7.74631 16842 ft 362 kts 117°
2026-05-03 22:49 62.10897 -7.69894 16355 ft 357 kts 123°
2026-05-03 22:50 62.09532 -7.65506 15893 ft 352 kts 130°
2026-05-03 22:50 62.08003 -7.61504 15434 ft 344 kts 137°
2026-05-03 22:50 62.06407 -7.57776 14980 ft 338 kts 137°
2026-05-03 22:50 62.04850 -7.54062 14533 ft 334 kts 136°
2026-05-03 22:51 62.03319 -7.50396 14095 ft 328 kts 137°
2026-05-03 22:51 62.01805 -7.46823 13636 ft 323 kts 137°
2026-05-03 22:51 62.00301 -7.43284 13217 ft 322 kts 137°
2026-05-03 22:51 61.98801 -7.39743 12794 ft 321 kts 137°
2026-05-03 22:52 61.97320 -7.36242 12368 ft 315 kts 137°
2026-05-03 22:52 61.95859 -7.32810 11954 ft 311 kts 137°
2026-05-03 22:52 61.94409 -7.29412 11543 ft 310 kts 137°
2026-05-03 22:52 61.92963 -7.26025 11137 ft 308 kts 137°
2026-05-03 22:53 61.91537 -7.22681 10730 ft 303 kts 137°
2026-05-03 22:53 61.90130 -7.19391 10343 ft 299 kts 137°
2026-05-03 22:53 61.88735 -7.16143 9946 ft 298 kts 137°
2026-05-03 22:53 61.87372 -7.12960 9514 ft 286 kts 137°
2026-05-03 22:54 61.86035 -7.09853 9128 ft 286 kts 137°
2026-05-03 22:54 61.84698 -7.06750 8748 ft 283 kts 137°
2026-05-03 22:54 61.83520 -7.03496 8373 ft 272 kts 123°
2026-05-03 22:54 61.82825 -6.99939 8029 ft 252 kts 108°
2026-05-03 22:55 61.82563 -6.96450 7713 ft 230 kts 93°
2026-05-03 22:55 61.82649 -6.93184 7419 ft 216 kts 80°
2026-05-03 22:55 61.83029 -6.90157 7151 ft 212 kts 68°
2026-05-03 22:55 61.83677 -6.87376 6874 ft 210 kts 55°
2026-05-03 22:56 61.84559 -6.84944 6600 ft 207 kts 43°
2026-05-03 22:56 61.85617 -6.82970 6371 ft 199 kts 32°
2026-05-03 22:56 61.86807 -6.81475 6106 ft 199 kts 21°
2026-05-03 22:56 61.88094 -6.80489 5852 ft 194 kts 11°
2026-05-03 22:57 61.89403 -6.80027 5597 ft 188 kts
2026-05-03 22:57 61.90698 -6.80062 5346 ft 185 kts 350°
2026-05-03 22:57 61.91933 -6.80559 5113 ft 174 kts 342°
2026-05-03 22:57 61.93022 -6.81404 4879 ft 160 kts 333°
2026-05-03 22:58 61.93961 -6.82497 4677 ft 149 kts 326°
2026-05-03 22:58 61.94759 -6.83768 4504 ft 136 kts 318°
2026-05-03 22:58 61.95419 -6.85127 4309 ft 132 kts 311°
2026-05-03 22:58 61.96008 -6.86694 4141 ft 141 kts 305°
2026-05-03 22:59 61.96524 -6.88521 4000 ft 143 kts 297°
2026-05-03 22:59 61.96980 -6.90335 3999 ft 137 kts 299°
2026-05-03 22:59 61.97448 -6.92165 3990 ft 142 kts 298°
2026-05-03 22:59 61.97916 -6.94009 4001 ft 142 kts 298°
2026-05-03 23:00 61.98378 -6.95853 3995 ft 141 kts 300°
2026-05-03 23:00 61.98843 -6.97679 3993 ft 140 kts 298°
2026-05-03 23:00 61.99297 -6.99490 3991 ft 138 kts 299°
2026-05-03 23:00 61.99759 -7.01325 3695 ft 146 kts 298°
2026-05-03 23:01 62.00251 -7.03210 3310 ft 146 kts 299°
2026-05-03 23:01 62.00723 -7.05079 2961 ft 138 kts 297°
2026-05-03 23:01 62.01155 -7.06815 2709 ft 128 kts 297°
2026-05-03 23:01 62.01558 -7.08440 2513 ft 123 kts 297°
2026-05-03 23:02 62.01963 -7.10073 2311 ft 125 kts 298°
2026-05-03 23:02 62.02376 -7.11708 2106 ft 125 kts 298°
2026-05-03 23:02 62.02771 -7.13324 1902 ft 118 kts 301°
2026-05-03 23:02 62.03168 -7.14878 1713 ft 125 kts 301°
2026-05-03 23:03 62.03588 -7.16586 1496 ft 130 kts 301°
2026-05-03 23:03 62.03956 -7.18119 1250 ft 106 kts 302°
2026-05-03 23:03 62.04281 -7.19478 1091 ft 98 kts 303°
2026-05-03 23:03 62.04610 -7.20735 917 ft 96 kts 301°
2026-05-03 23:04 62.04921 -7.21988 758 ft 94 kts 303°
2026-05-03 23:04 62.05220 -7.23191 618 ft 92 kts 305°
2026-05-03 23:04 62.05531 -7.24424 467 ft 94 kts 304°
2026-05-03 23:04 62.05836 -7.25630 322 ft 89 kts 307°
2026-05-03 23:05 62.06105 -7.26708 258 ft 69 kts 307°
2026-05-03 23:05 62.06304 -7.27494 279 ft 77 kts 299°
2026-05-03 23:05 62.06613 -7.28787 461 ft 111 kts 300°
2026-05-03 23:05 62.06906 -7.30418 963 ft 121 kts 293°
2026-05-03 23:06 62.07052 -7.32164 1459 ft 129 kts 283°
2026-05-03 23:06 62.07141 -7.34182 1976 ft 138 kts 281°
2026-05-03 23:06 62.07239 -7.36221 2566 ft 137 kts 268°
2026-05-03 23:06 62.07151 -7.38133 2989 ft 132 kts 268°
2026-05-03 23:07 62.06987 -7.40106 3520 ft 131 kts 264°
2026-05-03 23:07 62.06755 -7.41915 4240 ft 116 kts 258°
2026-05-03 23:07 62.06548 -7.43722 4384 ft 135 kts 261°
2026-05-03 23:07 62.06320 -7.45558 4246 ft 122 kts 259°
2026-05-03 23:08 62.06072 -7.47235 4095 ft 116 kts 258°
2026-05-03 23:08 62.05759 -7.48808 3943 ft 120 kts 239°
2026-05-03 23:08 62.04919 -7.49464 3790 ft 148 kts 185°
2026-05-03 23:08 62.03883 -7.48666 3687 ft 177 kts 134°
2026-05-03 23:09 62.03368 -7.46191 3604 ft 191 kts 99°
2026-05-03 23:09 62.03124 -7.43357 3704 ft 199 kts 99°
2026-05-03 23:09 62.02793 -7.40396 4005 ft 206 kts 102°
2026-05-03 23:09 62.02440 -7.37558 3991 ft 193 kts 105°
2026-05-03 23:10 62.02113 -7.34844 3985 ft 188 kts 104°
2026-05-03 23:10 62.01785 -7.32090 4002 ft 193 kts 104°
2026-05-03 23:10 62.01460 -7.29345 4006 ft 190 kts 104°
2026-05-03 23:10 62.01140 -7.26627 4023 ft 188 kts 106°
2026-05-03 23:11 62.00616 -7.24065 4026 ft 186 kts 122°
2026-05-03 23:11 61.99897 -7.21763 4016 ft 188 kts 126°
2026-05-03 23:11 61.99010 -7.19723 4040 ft 187 kts 139°
2026-05-03 23:11 61.97962 -7.18118 4029 ft 188 kts 147°
2026-05-03 23:12 61.96890 -7.16568 4177 ft 181 kts 146°
2026-05-03 23:12 61.95878 -7.14983 4196 ft 182 kts 142°
2026-05-03 23:12 61.94852 -7.13352 4163 ft 185 kts 144°
2026-05-03 23:12 61.93786 -7.11713 4041 ft 192 kts 146°
2026-05-03 23:13 61.92675 -7.10093 3999 ft 193 kts 146°
2026-05-03 23:13 61.91570 -7.08486 3997 ft 192 kts 146°
2026-05-03 23:13 61.90472 -7.06895 4006 ft 190 kts 146°
2026-05-03 23:13 61.89484 -7.05036 3916 ft 183 kts 129°
2026-05-03 23:14 61.88878 -7.02841 3852 ft 167 kts 109°
2026-05-03 23:14 61.88714 -7.00477 3688 ft 160 kts 84°
2026-05-03 23:14 61.88988 -6.98332 3697 ft 142 kts 66°
2026-05-03 23:14 61.89330 -6.96476 3793 ft 135 kts 65°
2026-05-03 23:15 61.89670 -6.94619 3992 ft 137 kts 65°
2026-05-03 23:15 61.90030 -6.92653 4020 ft 148 kts 67°
2026-05-03 23:15 61.90416 -6.90585 4016 ft 155 kts 67°
2026-05-03 23:15 61.90818 -6.88439 4000 ft 157 kts 66°
2026-05-03 23:16 61.91300 -6.86374 3963 ft 157 kts 52°
2026-05-03 23:16 61.92050 -6.84778 3963 ft 149 kts 31°
2026-05-03 23:16 61.92978 -6.83974 3932 ft 144 kts
2026-05-03 23:16 61.93919 -6.84204 3997 ft 135 kts 336°
2026-05-03 23:17 61.94706 -6.85321 4006 ft 135 kts 323°
2026-05-03 23:17 61.95478 -6.86523 3988 ft 137 kts 323°
2026-05-03 23:17 61.96230 -6.87790 4018 ft 138 kts 320°
2026-05-03 23:17 61.96919 -6.89248 3961 ft 138 kts 298°
2026-05-03 23:18 61.97280 -6.91164 4000 ft 142 kts 296°
2026-05-03 23:18 61.97695 -6.92903 3991 ft 122 kts 297°
2026-05-03 23:18 61.98066 -6.94468 3994 ft 117 kts 297°
2026-05-03 23:18 61.98446 -6.95977 4002 ft 114 kts 299°
2026-05-03 23:19 61.98825 -6.97504 3878 ft 120 kts 299°
2026-05-03 23:19 61.99228 -6.99091 3693 ft 123 kts 297°
2026-05-03 23:19 61.99482 -7.00171 3563 ft 123 kts 298°
2026-05-03 23:19 62.00032 -7.02308 3284 ft 122 kts 298°
2026-05-03 23:20 62.00292 -7.03365 3154 ft 121 kts 298°
2026-05-03 23:20 62.00685 -7.04950 2959 ft 122 kts 298°
2026-05-03 23:20 62.01089 -7.06554 2759 ft 124 kts 299°
2026-05-03 23:20 62.01498 -7.08208 2552 ft 128 kts 298°
2026-05-03 23:21 62.01922 -7.09899 2335 ft 132 kts 298°
2026-05-03 23:21 62.02344 -7.11611 2121 ft 129 kts 300°
2026-05-03 23:21 62.02742 -7.13194 1913 ft 111 kts 300°
2026-05-03 23:21 62.03098 -7.14616 1732 ft 111 kts 304°
2026-05-03 23:22 62.03830 -7.17592 1351 ft 108 kts 302°
2026-05-03 23:22 62.04162 -7.18945 1177 ft 97 kts 304°
2026-05-03 23:22 62.04483 -7.20155 983 ft 92 kts 301°
2026-05-03 23:23 62.04757 -7.21362 827 ft 89 kts 302°
2026-05-03 23:23 62.05056 -7.22527 698 ft 89 kts 301°
2026-05-03 23:23 62.05338 -7.23682 568 ft 88 kts 304°
2026-05-03 23:23 62.05627 -7.24836 420 ft 89 kts 302°
2026-05-03 23:24 62.05917 -7.25970 275 ft 86 kts 302°
2026-05-03 23:24 62.06156 -7.26900 263 ft 49 kts 298°
2026-05-03 23:24 62.06287 -7.27427 278 ft 36 kts 298°
2026-05-03 23:24 62.06401 -7.27886 278 ft 34 kts 298°
2026-05-03 23:25 62.06473 -7.28148 274 ft 10 kts 329°
2026-05-03 23:25 62.06529 -7.28122 273 ft 8 kts 23°
2026-05-03 23:25 62.06545 -7.28108 272 ft 0 kts 22°
2026-05-03 23:25 62.06560 -7.28099 272 ft 9 kts 11°
2026-05-03 23:26 62.06620 -7.28090 273 ft 7 kts
2026-05-03 23:26 62.06654 -7.28031 273 ft 6 kts 99°
2026-05-03 23:26 62.06668 -7.27968 273 ft 5 kts 28°
2026-05-03 23:26 62.06693 -7.27937 273 ft 0 kts 29°